Regional Weather Roundup
Issued by NWS Sterling, VA

Home | Current Version | Previous Version | Graphics & Text | Print | Product List | Glossary On
Versions: 1 2 3 4 5 6 7 8 9 10 11 12 13 14 15 16 17 18 19 20 21 22 23 24 25 26 27
000
ASUS41 KLWX 102010
RWRLWX

REGIONAL WEATHER ROUNDUP
NATIONAL WEATHER SERVICE BALTIMORE MD/WASHINGTON DC
300 PM EST SUN DEC 10 2017

Note: "FAIR" indicates few or no clouds below 12,000 feet
with no significant weather and/or obstructions to visibility.
 TC=TEMPERATURE CELSIUS

 * =Non NWS site. Station does not report precipitation (e.g. rain,
    snow, etc.), thunder, or fog.

DCZ001-MDZ009-015-VAZ040>042-051-053>054-102100-
WASHINGTON METRO

CITY           SKY/WX    TMP DP  RH WIND       PRES   REMARKS
WASHINGTON NAT PTSUNNY   41  24  51 NW8       30.05F
DULLES         MOSUNNY   39  22  50 W12       30.03F
ANDREWS AFB    MOSUNNY   40  22  48 W13       30.02F
FT BELVOIR     MOSUNNY   40  22  47 W7        30.04F
QUANTICO       PTSUNNY   42  25  50 W9        30.06F
COLLEGE PARK*  PTSUNNY   39  20  47 W9G17     30.04S
LEESBURG*      MOSUNNY   39  27  60 W10G18    30.03S
MANASSAS*      PTSUNNY   39  24  55 W7        30.05S
GAITHERSBURG*  MOSUNNY   37  22  54 W12       30.02S

$$

MDZ006>007-011-014-102100-
BALTIMORE METRO

CITY           SKY/WX    TMP DP  RH WIND       PRES   REMARKS
BWI AIRPORT    PTSUNNY   39  23  52 W13       30.03R
MD SCIENCE CTR   N/A     40  22  48 MISG      30.02F
MARTIN STATE   PTSUNNY   39  25  56 W10G17    30.05R
ANNAPOLIS        N/A     39  24  55 W9        30.04R
FORT MEADE*    PTSUNNY   37  25  60 W12       30.06S

$$

MDZ012-015-019>023-102100-
MARYLAND EASTERN SHORE

CITY           SKY/WX    TMP DP  RH WIND       PRES   REMARKS
OCEAN CITY     SUNNY     38  27  64 W7        30.06R
SALISBURY      SUNNY     37  24  59 W10G17    30.05S
BAY BRIDGE AP* CLOUDY    39  25  56 W14       30.04S
CAMBRIDGE*     CLOUDY    37  25  60 W5        30.06R
EASTON*        PTSUNNY   41  25  52 NW8       30.08S

$$

MDZ017>025-102100-
SOUTHERN MARYLAND

CITY           SKY/WX    TMP DP  RH WIND       PRES   REMARKS
PATUXENT RIVER MOSUNNY   39  25  57 W9        30.06S
ST INIGOES     SUNNY     39  26  59 SW12      30.06S
LEONARDTOWN*   MOSUNNY   37  27  65 SW9       30.07

$$

MDZ003>005-102100-
NORTH CENTRAL MARYLAND

CITY           SKY/WX    TMP DP  RH WIND       PRES   REMARKS
FREDERICK*     PTSUNNY   39  18  41 W13G21    30.05S
HAGERSTOWN APT MOSUNNY   37  18  46 W13       29.99R WCI  29
WESTMINSTER*   PTSUNNY   36  23  60 SW9G21    29.97F WCI  29

$$

MDZ501>502-102100-
WESTERN MARYLAND

CITY           SKY/WX    TMP DP  RH WIND       PRES   REMARKS
OAKLAND*       PTSUNNY   23  16  74 W10G25    29.85F WCI  12
CUMBERLAND*    PTSUNNY   36  19  51 SW10G25   30.04F WCI  28

$$

VAZ025>031-102100-
SHENANDOAH VALLEY

CITY           SKY/WX    TMP DP  RH WIND       PRES   REMARKS
WINCHESTER*    SUNNY     36  19  51 W13       30.01S WCI  27
FRONT ROYAL*   FAIR      37  19  48 MISG      30.00F
LURAY*         CLOUDY    37  21  52 W9        30.01F
NEW MARKET*    MOSUNNY   39  16  39 W7        30.00F
STAUNTON*      SUNNY     37  21  53 SW9       30.02F
WAYNESBORO*    SUNNY     36  19  51 SW9       30.01F WCI  29

$$

WVZ021-048>050-054>055-102100-
EASTERN WEST VIRGINIA PANHANDLE

CITY           SKY/WX    TMP DP  RH WIND       PRES   REMARKS
MARTINSBURG    SUNNY     38  17  42 W12       30.00F
PETERSBURG*    SUNNY     37  17  45 SW7       30.00F

$$

VAZ036>039-050-102100-
CENTRAL FOOTHILLS

CITY           SKY/WX    TMP DP  RH WIND       PRES   REMARKS
CHARLOTTESVILL SUNNY     41  19  41 W6        30.04S
CULPEPER*      FAIR      42  21  42 SW10      30.05S
ORANGE*        SUNNY     39  21  48 W10       30.05R
GORDONSVILLE*  SUNNY     41  20  43 SW8       30.04S
WARRENTON*     MOSUNNY   42  20  40 W6        30.04S

$$

VAZ055>057-102100-
NORTH AND CENTRAL PIEDMONT

CITY           SKY/WX    TMP DP  RH WIND       PRES   REMARKS
FREDERICKSBRG* MOSUNNY   42  27  55 SW10      30.05S
STAFFORD*      MOSUNNY   41  24  51 W6        30.09S

$$

NCZ024-NYZ072-PAZ021-071-VAZ022-071-102100-
OTHER REGIONAL OBSERVATIONS

CITY           SKY/WX    TMP DP  RH WIND       PRES   REMARKS
NEW YORK CITY  PTSUNNY   39  22  50 MISG      29.94R
PHILADELPHIA   PTSUNNY   38  20  48 W16       30.00R WCI  29
PITTSBURGH     CLOUDY    33  18  53 SW13G23   29.94F WCI  24
ROANOKE        SUNNY     40  18  41 SW10      30.07F
RICHMOND       MOSUNNY   39  26  59 W9        30.08F
RALEIGH        MOSUNNY   42  24  49 W8        30.14F

$$

ANZ530>537-102100-
MARINE OBSERVATIONS

STATION/POSITION TIME  TEMP    WIND        PRES
                       AIR SEA DIR/SP/G
                 (UTC) (F)     (DEG/KT/KT) (MB)
THOMAS PT LIGHT  2000   39 48  290/ 10/ 13   N/A
BALT KEY BRIDGE  1948   38     250/ 13/ 16 1016.7R
COVE POINT       1948   39     270/  9/ 13 1018.4R
LEWISETTA        1948   38 45  270/ 12/ 15 1018.3R
SOLOMONS ISLAND  1948   41 49  250/ 10/ 13 1017.5S
PINEY POINT      1948          280/ 11/ 13   N/A

$$





USA.gov is the U.S. government's official web portal to all federal, state and local government web resources and services.